This is the latest recevied weather packets stored in our database for station/object W3JBS-2. If no packets are shown the sender has not sent any weather packets the latest 10 day(s).
| Time | Temp. | Humidity | Pressure | Rain* | Wind** | Luminosity | Snow |
|---|---|---|---|---|---|---|---|
| 1777524715 | 8.89° C | 86% | 1008.2 hPa | 1.02 mm | - | 1760 W/m² | - |
| 1777523816 | 8.89° C | 86% | 1008.3 hPa | 2.03 mm | - | 1761 W/m² | - |
| 1777522916 | 8.89° C | 86% | 1008.4 hPa | 2.03 mm | - | 1763 W/m² | - |
| 1777522015 | 8.89° C | 86% | 1009 hPa | 2.29 mm | - | 1763 W/m² | - |
| 1777521115 | 8.89° C | 86% | 1008.8 hPa | 2.79 mm | - | 1765 W/m² | - |
| 1777520215 | 8.89° C | 85% | 1008.4 hPa | 2.54 mm | - | 1765 W/m² | - |
| 1777519316 | 8.89° C | 85% | 1008.2 hPa | 4.57 mm | - | 1767 W/m² | - |
| 1777518416 | 8.89° C | 85% | 1008.5 hPa | 5.59 mm | - | 1768 W/m² | - |
| 1777517515 | 8.89° C | 85% | 1008.9 hPa | 4.06 mm | - | 1768 W/m² | - |
| 1777516615 | 8.89° C | 84% | 1008.6 hPa | 3.56 mm | - | 1770 W/m² | - |
| 1777515716 | 8.89° C | 83% | 1008.6 hPa | 1.52 mm | - | 1770 W/m² | - |
| 1777514816 | 9.44° C | 83% | 1008.3 hPa | 0.25 mm | - | 1770 W/m² | - |
| 1777513916 | 9.44° C | 82% | 1009.8 hPa | 0.51 mm | - | 1772 W/m² | - |
| 1777513015 | 9.44° C | 82% | 1009.6 hPa | 0.76 mm | - | 1774 W/m² | - |
| 1777512115 | 9.44° C | 81% | 1009.4 hPa | 1.27 mm | - | 1774 W/m² | - |
| 1777511216 | 9.44° C | 81% | 1009.4 hPa | 1.52 mm | - | 1775 W/m² | - |
| 1777510315 | 9.44° C | 80% | 1009.1 hPa | 1.52 mm | - | 1775 W/m² | - |
| 1777509415 | 10° C | 79% | 1008.6 hPa | 1.02 mm | - | 1775 W/m² | - |
| 1777508515 | 10.56° C | 78% | 1009 hPa | 0.76 mm | - | 1777 W/m² | - |
| 1777507615 | 10.56° C | 76% | 1009.3 hPa | 0.51 mm | - | 1777 W/m² | - |
| 1777506716 | 11.11° C | 74% | 1009.3 hPa | 0.25 mm | - | 1779 W/m² | - |
| 1777505815 | 11.67° C | 72% | 1009.6 hPa | 0.25 mm | - | 1779 W/m² | - |
| 1777504915 | 12.22° C | 70% | 1009.4 hPa | 0.25 mm | - | 1779 W/m² | - |
| 1777504015 | 12.22° C | 69% | 1009.1 hPa | 0.25 mm | - | 1781 W/m² | - |
| 1777503116 | 12.78° C | 68% | 1009.4 hPa | 0.25 mm | - | 1779 W/m² | - |
* Rain latest hour (hover to see other rain measurements)
** Current wind speed in m/s (hover to see current wind gust speed)